THORAD AGENA D DEB

Satellite information

Favourite Embed

Satellite Type and Status

DEBRISIN ORBIT

Key statistics

Satellite THORAD AGENA D DEB at a glance.

Uptime

20242

Days in orbit

Revolutions

≈ 15.2

Per day

Orbit

SSO

Sun Synchronous Orbit

Inclination

99.6

Latest

Satellite identification and parameters

Extended collection of information and parameters for THORAD AGENA D DEB.

Object identification

Identified? True

Debris? True

Object name: THORAD AGENA D DEB

International designator: 1970-025DK

Object number (NORAD): 4765

Object ID (CCSDS): 4765

Country: UNITED STATES OF AMERICA (US)

Current information (Y/N): Y

RCS size: MEDIUM

Orbital parameters

Period: 94.754 minutes

Inclination: 99.5803 deg

SMA: 6884.801 km

Apoapsis: 520.261 km

Periapsis: 493.072 km

RAAN: 305.8538 deg

Eccentricy: 0.00197457

Argument of periapsis: 224.9289 deg

Mean anomaly: 135.0342 deg

Mean motion: 15.19727268 rev/day

Mean motion (dot): 0.00074692 rev/day2

B* drag term: 0.0034484901 1/REarth

Two-line elements (TLE)

Creation date: Sept. 8, 2025, 3:16 a.m.

Reference frame: TEME

Reference center: EARTH

Epoch: Sept. 7, 2025, 8:49 p.m. UTC

TLE line 0: 0 THORAD AGENA D DEB

TLE line 1: 1 04765U 70025DK 25250.86752200 .00074692 00000-0 34485-2 0 9994

TLE line 2: 2 04765 99.5803 305.8538 0019746 224.9289 135.0342 15.19727268867088

Live tracking on map

Real-time ground track for satellite THORAD AGENA D DEB.

In-orbit conjunctions

A list of the most updated potential collisions computed for object THORAD AGENA D DEB.

Target Orbit TCA Probability of collision Miss distance Type
OBJECT M SSO 2025-04-17 03:03:50 0.0001255966 976.0 (m) UNKNOWN
COSMOS 2251 DEB LEO 2024-11-21 11:57:46 0.0001476341 170.0 (m) DEBRIS

Associated space launch

Meteorological research and development satellite

THORAD AGENA D DEB was lifted into orbit during the mission ‘Thorad SLV-2G Agena D | Nimbus 4’, on board a Thorad SLV-2G Agena D space rocket.

The launch took place on April 8, 1970, 8:17 a.m. from Space Launch Complex 2E.

For more information about the launch, click the button.

Launch to space Thorad SLV-2G Agena D | Nimbus 4
Thorad SLV-2G Agena D | Nimbus 4

Agency: N/A

Status: Launch Successful

Launch date: April 8, 1970, 8:17 a.m. UTC

Rocket: Thorad SLV-2G Agena D

Launch pad: Space Launch Complex 2E

Location: Vandenberg SFB, CA, USA

...

Latest news about this satellite

There are no fresh news available about this satellite. Check back as we update our databases every day.


Newsletter sign-up

Weekly statistics, charts and insights to help you stay on top of the space industry.